OSCAR 14 (UOSAT 3)

Satellite information

Favourite Embed

Satellite Type and Status

PAYLOADIN ORBIT

Key statistics

Satellite OSCAR 14 (UOSAT 3) at a glance.

Uptime

12950

Days in orbit

Revolutions

≈ 14.3

Per day

Orbit

SSO

Sun Synchronous Orbit

Inclination

98.9

Latest

Satellite identification and parameters

Extended collection of information and parameters for OSCAR 14 (UOSAT 3).

Object identification

Identified? True

Debris? False

Object name: OSCAR 14 (UOSAT 3)

International designator: 1990-005B

Object number (NORAD): 20437

Object ID (CCSDS): 20437

Country: UNITED KINGDOM (UK)

Current information (Y/N): Y

RCS size: MEDIUM

Orbital parameters

Period: 100.479 minutes

Inclination: 98.8516 deg

SMA: 7159.393 km

Apoapsis: 788.54 km

Periapsis: 773.976 km

RAAN: 225.2071 deg

Eccentricy: 0.0010171

Argument of periapsis: 191.6013 deg

Mean anomaly: 282.072 deg

Mean motion: 14.33139381 rev/day

Mean motion (dot): 0.00000067 rev/day2

B* drag term: 0.000041474 1/REarth

Two-line elements (TLE)

Creation date: July 6, 2025, 6:05 p.m.

Reference frame: TEME

Reference center: EARTH

Epoch: July 6, 2025, 3:22 p.m. UTC

TLE line 0: 0 OSCAR 14 (UOSAT 3)

TLE line 1: 1 20437U 90005B 25187.64036086 .00000067 00000-0 41474-4 0 9993

TLE line 2: 2 20437 98.8516 225.2071 0010171 191.6013 282.0720 14.33139381852096

Live tracking on map

Real-time ground track for satellite OSCAR 14 (UOSAT 3).

In-orbit conjunctions

There are no conjunctions computed for OSCAR 14 (UOSAT 3), at the moment. Check back to stay up to date, as we update our databases every day.

Go to all conjunctions

Associated space launch

French Earth observation satellite

OSCAR 14 (UOSAT 3) was lifted into orbit during the mission ‘Ariane 40 | SPOT 2’, on board a Ariane 40 space rocket.

The launch took place on Jan. 22, 1990, 1:35 a.m. from Ariane Launch Area 2.

For more information about the launch, click the button.

Launch to space Ariane 40 | SPOT 2
Ariane 40 | SPOT 2

Agency: N/A

Status: Launch Successful

Launch date: Jan. 22, 1990, 1:35 a.m. UTC

Rocket: Ariane 40

Launch pad: Ariane Launch Area 2

Location: Guiana Space Centre, French Guiana

...

Latest news about this satellite

There are no fresh news available about this satellite. Check back as we update our databases every day.


Newsletter sign-up

Weekly statistics, charts and insights to help you stay on top of the space industry.